Showing default

KSM1-C, 46906

Orbit data source: Space-Track

KSM1-C, 46906 is a payload satellite owned by Kleos Space (LU) in LEO that was launched on Sat, 07 Nov 2020 UTC via a PSLV-DL launch vehicle from the Sirharikota (SRI). Payload-class satellites include a variety of spacecraft equipped with specific instruments for various scientific and technological missions. These include communications satellites like Starlink; space stations such as the ISS; scientific satellites like the Hubble; Earth observation satellites from companies like Planet Labs, Umbra, and HawkEye 360; GPS; miniature CubeSats for education and research; and military/defense satellites.

Loading next visibility...
Identifier
46906, 2020-081B
Orbit
LEO
Last TLE update
10 hours ago
Origin
Manufacturer
GOMSpace
Mission
Operational Commercial Sigint
Bus & Motor
CUBESAT 6U, Unknown motor
Mass
~10 kg wet, ~10 kg dry
Launch date (UTC)
2020-11-07 (5 years ago)
Launch vehicle
PSLV-DL
Launch site
Sirharikota (SRI)
Object type
Payload
Rocket body
Debris
Shape & HBR
Box, 0.3 m
Radar Cross Section
0.080 m², Small (<0.1 m²)

Expand to show TLE details & history

TLE from 10 hours ago
0 KSM1-C
1 46906U 20081B   25191.61206087  .00004354  00000-0  20582-3 0  9990
2 46906  36.8951 355.8638 0003825 259.2878 100.7438 15.19318132257063
Epoch: 2025-07-10T14:41Z
TLE epoch observation values (Epoch: 2025-07-10T14:41:22.059Z)
Latitude
-0.00002°
Longitude
-153.25398°
Altitude
507.501 km
Speed
7.612 km/s
True Right ascension
23h 43m 27s
True Declination
0° 00' 00"
Sunlit
Object was in partial shadow at epoch
Visualization orbit readout
Latitude
37.0232°
Longitude
-68.14507°
Altitude
511.702 km
Speed
7.612 km/s
Apparent Right ascension
03h 15m 24s
Apparent Declination
0° 22' 42"
Sunlit
Object is in daylight
Visualization observer readout
Local Sidereal Time
12:48:34
Azimuth
310.993° NW
Elevation
-37.635°
Doppler factor
1
Orbital elements
Apogee altitude
513.478 km
Perigee altitude
508.208 km
Semi-major axis
6,888.98 km
Eccentricity
0.00038
Inclination
36.8951°
RAAN
355.8638°
Arg. of periapsis
259.2878°
True anomaly
Unknown
Mean anomaly
100.7438°
Eccentric anomaly
Unknown
Mean motion
3.79586 °/min
Orbital period
94.84 mins
BSTAR
0.00020582
Loading maneuver chart data...
Loading SW <> Apogee altitude chart data...
Loading historical data...
Loading historical data...
Loading historical data...
Loading historical data...
Loading historical data...
Loading historical data...
Loading historical data...

KSM1-C Visibility forecast

Observer location: undefined°, undefined°

Span
Click to sort rows by Start time (UTC) header in descending order
Start Az.
Max El. time (UTC)
Max El. Az.
Max El.
End time (UTC)
End Az.
6 mins2025-07-11 14:34:19.379Z213.409° SW2025-07-11 14:37:19.379Z162.447° S22.733°2025-07-11 14:40:19.379Z105.942° ESE
6 mins2025-07-11 16:14:19.379Z244.407° WSW2025-07-11 16:17:19.379Z158.664° S37.318°2025-07-11 16:20:19.379Z99.825° ESE
6 mins2025-07-11 17:54:19.379Z256.084° W2025-07-11 17:56:19.379Z214.231° SW34.676°2025-07-11 18:00:19.379Z116.67° SE
|